Time,TemperatureF,DewpointF,PressureIn,WindDirection,WindDirectionDegrees,WindSpeedMPH,WindSpeedGustMPH,Humidity,HourlyPrecipIn,Conditions,Clouds,dailyrainin,SoftwareType,DateUTC
2013-04-17 00:03:00,50.0,50.0,30.21,WSW,246,5.0,23.0,99,0.00,,,0.00,,2013-04-17 04:03:00,
2013-04-17 00:13:00,50.0,50.0,30.21,WSW,246,5.0,23.0,99,0.00,,,0.00,,2013-04-17 04:13:00,
2013-04-17 00:22:00,49.0,49.0,30.20,SSW,210,0.0,0.0,99,0.00,,,0.00,,2013-04-17 04:22:00,
2013-04-17 00:33:00,49.0,49.0,30.20,SSW,210,0.0,0.0,99,0.00,,,0.00,,2013-04-17 04:33:00,
2013-04-17 00:42:00,49.0,49.0,30.20,SSW,210,0.0,0.0,99,0.00,,,0.00,,2013-04-17 04:42:00,
2013-04-17 00:52:00,49.0,49.0,30.19,WSW,243,0.0,23.0,99,0.00,,,0.00,,2013-04-17 04:52:00,
2013-04-17 01:02:00,49.0,49.0,30.19,WSW,243,0.0,23.0,99,0.00,,,0.00,,2013-04-17 05:02:00,
2013-04-17 01:12:00,49.0,49.0,30.19,WSW,243,0.0,23.0,99,0.00,,,0.00,,2013-04-17 05:12:00,
2013-04-17 01:22:00,50.0,50.0,30.19,SW,231,3.0,23.0,99,0.00,,,0.00,,2013-04-17 05:22:00,
2013-04-17 01:32:00,50.0,50.0,30.19,SW,231,3.0,23.0,99,0.00,,,0.00,,2013-04-17 05:32:00,
2013-04-17 01:43:00,50.0,50.0,30.19,SW,231,3.0,23.0,99,0.00,,,0.00,,2013-04-17 05:43:00,
2013-04-17 01:52:00,51.0,51.0,30.19,West,266,4.0,23.0,99,0.00,,,0.00,,2013-04-17 05:52:00,
2013-04-17 02:02:00,51.0,51.0,30.19,West,266,4.0,23.0,99,0.00,,,0.00,,2013-04-17 06:02:00,
2013-04-17 02:12:00,51.0,51.0,30.19,West,266,4.0,23.0,99,0.00,,,0.00,,2013-04-17 06:12:00,
2013-04-17 02:22:00,51.0,51.0,30.18,SW,220,3.0,23.0,99,0.00,,,0.00,,2013-04-17 06:22:00,
2013-04-17 02:32:00,51.0,51.0,30.18,SW,220,3.0,23.0,99,0.00,,,0.00,,2013-04-17 06:32:00,
2013-04-17 02:42:00,51.0,51.0,30.18,SW,220,3.0,23.0,99,0.00,,,0.00,,2013-04-17 06:42:00,
2013-04-17 02:52:00,50.0,50.0,30.17,SW,227,1.0,23.0,99,0.00,,,0.00,,2013-04-17 06:52:00,
2013-04-17 03:02:00,50.0,50.0,30.17,SW,227,1.0,23.0,99,0.00,,,0.00,,2013-04-17 07:02:00,
2013-04-17 03:12:00,50.0,50.0,30.17,SW,227,1.0,23.0,99,0.00,,,0.00,,2013-04-17 07:12:00,
2013-04-17 03:22:00,50.0,50.0,30.16,WSW,243,0.0,23.0,99,0.00,,,0.00,,2013-04-17 07:22:00,
2013-04-17 03:32:00,50.0,50.0,30.16,WSW,243,0.0,23.0,99,0.00,,,0.00,,2013-04-17 07:32:00,
2013-04-17 03:42:00,50.0,50.0,30.16,WSW,243,0.0,23.0,99,0.00,,,0.00,,2013-04-17 07:42:00,
2013-04-17 03:52:00,50.0,50.0,30.16,SW,223,3.0,23.0,99,0.00,,,0.00,,2013-04-17 07:52:00,
2013-04-17 04:02:00,50.0,50.0,30.16,SW,223,3.0,23.0,99,0.00,,,0.00,,2013-04-17 08:02:00,
2013-04-17 04:12:00,50.0,50.0,30.16,SW,223,3.0,23.0,99,0.00,,,0.00,,2013-04-17 08:12:00,
2013-04-17 04:22:00,50.0,50.0,30.16,SW,223,3.0,23.0,99,0.00,,,0.00,,2013-04-17 08:22:00,
2013-04-17 04:52:00,51.0,51.0,30.16,West,260,0.0,23.0,99,0.00,,,0.00,,2013-04-17 08:52:00,
2013-04-17 05:02:00,51.0,51.0,30.16,West,260,0.0,23.0,99,0.00,,,0.00,,2013-04-17 09:02:00,
2013-04-17 05:12:00,51.0,51.0,30.16,West,260,0.0,23.0,99,0.00,,,0.00,,2013-04-17 09:12:00,
2013-04-17 05:22:00,51.0,51.0,30.16,West,260,0.0,23.0,99,0.00,,,0.00,,2013-04-17 09:22:00,
2013-04-17 05:33:00,51.0,51.0,30.16,West,260,0.0,23.0,99,0.00,,,0.00,,2013-04-17 09:33:00,
2013-04-17 05:42:00,51.0,51.0,30.16,West,260,0.0,23.0,99,0.00,,,0.00,,2013-04-17 09:42:00,
2013-04-17 05:53:00,52.0,52.0,30.16,WNW,296,1.0,23.0,99,0.00,,,0.00,,2013-04-17 09:53:00,
2013-04-17 06:03:00,52.0,52.0,30.16,WNW,296,1.0,23.0,99,0.00,,,0.00,,2013-04-17 10:03:00,
2013-04-17 06:12:00,52.0,52.0,30.16,WNW,296,1.0,23.0,99,0.00,,,0.00,,2013-04-17 10:12:00,
2013-04-17 06:23:00,52.0,52.0,30.16,NW,320,6.0,23.0,99,0.00,,,0.00,,2013-04-17 10:23:00,
2013-04-17 06:32:00,52.0,52.0,30.16,NW,320,6.0,23.0,99,0.00,,,0.00,,2013-04-17 10:32:00,
2013-04-17 06:43:00,52.0,52.0,30.16,NW,320,6.0,23.0,99,0.00,,,0.00,,2013-04-17 10:43:00,
2013-04-17 06:53:00,52.0,49.0,30.17,NNW,328,3.0,23.0,91,0.00,,,0.00,,2013-04-17 10:53:00,
2013-04-17 07:02:00,52.0,49.0,30.17,NNW,328,3.0,23.0,91,0.00,,,0.00,,2013-04-17 11:02:00,
2013-04-17 07:12:00,52.0,49.0,30.17,NNW,328,3.0,23.0,91,0.00,,,0.00,,2013-04-17 11:12:00,
2013-04-17 07:22:00,52.0,48.0,30.19,NW,321,5.0,23.0,87,0.00,,,0.00,,2013-04-17 11:22:00,
2013-04-17 07:32:00,52.0,48.0,30.19,NW,321,5.0,23.0,87,0.00,,,0.00,,2013-04-17 11:32:00,
2013-04-17 07:42:00,52.0,48.0,30.19,NW,321,5.0,23.0,87,0.00,,,0.00,,2013-04-17 11:42:00,
2013-04-17 07:52:00,51.0,47.0,30.20,NW,316,0.0,23.0,85,0.00,,,0.00,,2013-04-17 11:52:00,
2013-04-17 08:02:00,51.0,47.0,30.20,NW,316,0.0,23.0,85,0.00,,,0.00,,2013-04-17 12:02:00,
2013-04-17 08:12:00,51.0,47.0,30.20,NW,316,0.0,23.0,85,0.00,,,0.00,,2013-04-17 12:12:00,
2013-04-17 08:22:00,52.0,48.0,30.21,North,352,1.0,23.0,85,0.00,,,0.00,,2013-04-17 12:22:00,
2013-04-17 08:32:00,52.0,48.0,30.21,North,352,1.0,23.0,85,0.00,,,0.00,,2013-04-17 12:32:00,
2013-04-17 08:42:00,52.0,48.0,30.21,North,352,1.0,23.0,85,0.00,,,0.00,,2013-04-17 12:42:00,
2013-04-17 08:52:00,53.0,49.0,30.21,WNW,290,0.0,23.0,85,0.00,,,0.00,,2013-04-17 12:52:00,
2013-04-17 09:02:00,53.0,49.0,30.21,WNW,290,0.0,23.0,85,0.00,,,0.00,,2013-04-17 13:02:00,
2013-04-17 09:12:00,53.0,49.0,30.21,WNW,290,0.0,23.0,85,0.00,,,0.00,,2013-04-17 13:12:00,
2013-04-17 09:22:00,54.0,48.0,30.22,North,359,2.0,23.0,81,0.00,,,0.00,,2013-04-17 13:22:00,
2013-04-17 09:32:00,54.0,48.0,30.22,North,359,2.0,23.0,81,0.00,,,0.00,,2013-04-17 13:32:00,
2013-04-17 09:42:00,54.0,48.0,30.22,North,359,2.0,23.0,81,0.00,,,0.00,,2013-04-17 13:42:00,
2013-04-17 09:52:00,54.0,48.0,30.22,North,353,4.0,23.0,79,0.00,,,0.00,,2013-04-17 13:52:00,
2013-04-17 10:02:00,54.0,48.0,30.22,North,353,4.0,23.0,79,0.00,,,0.00,,2013-04-17 14:02:00,
2013-04-17 10:12:00,54.0,48.0,30.22,North,353,4.0,23.0,79,0.00,,,0.00,,2013-04-17 14:12:00,
2013-04-17 10:22:00,54.0,46.0,30.24,North,9,7.0,23.0,75,0.00,,,0.00,,2013-04-17 14:22:00,
2013-04-17 10:32:00,54.0,46.0,30.24,North,9,7.0,23.0,75,0.00,,,0.00,,2013-04-17 14:32:00,
2013-04-17 10:43:00,56.0,46.0,30.23,NNE,19,4.0,23.0,69,0.00,,,0.00,,2013-04-17 14:43:00,
2013-04-17 10:52:00,56.0,46.0,30.23,NNE,19,4.0,23.0,69,0.00,,,0.00,,2013-04-17 14:52:00,
2013-04-17 11:02:00,56.0,46.0,30.23,NNE,19,4.0,23.0,69,0.00,,,0.00,,2013-04-17 15:02:00,
2013-04-17 11:12:00,60.0,47.0,30.23,NE,40,1.0,23.0,62,0.00,,,0.00,,2013-04-17 15:12:00,
2013-04-17 11:22:00,60.0,47.0,30.23,NE,40,1.0,23.0,62,0.00,,,0.00,,2013-04-17 15:22:00,
2013-04-17 11:33:00,60.0,47.0,30.23,NE,40,1.0,23.0,62,0.00,,,0.00,,2013-04-17 15:33:00,
2013-04-17 11:43:00,60.0,47.0,30.23,NE,40,1.0,23.0,62,0.00,,,0.00,,2013-04-17 15:43:00,
2013-04-17 11:53:00,60.0,44.0,30.23,North,7,5.0,23.0,55,0.00,,,0.00,,2013-04-17 15:53:00,
2013-04-17 12:03:00,60.0,44.0,30.23,North,7,5.0,23.0,55,0.00,,,0.00,,2013-04-17 16:03:00,
2013-04-17 12:12:00,61.0,41.0,30.22,NNW,339,0.0,23.0,47,0.00,,,0.00,,2013-04-17 16:12:00,
2013-04-17 12:23:00,61.0,41.0,30.22,NNW,339,0.0,23.0,47,0.00,,,0.00,,2013-04-17 16:23:00,
2013-04-17 12:32:00,61.0,41.0,30.22,NNW,339,0.0,23.0,47,0.00,,,0.00,,2013-04-17 16:32:00,
2013-04-17 12:42:00,61.0,41.0,30.22,NNW,339,0.0,23.0,47,0.00,,,0.00,,2013-04-17 16:42:00,
2013-04-17 12:52:00,63.0,42.0,30.21,West,277,0.0,23.0,46,0.00,,,0.00,,2013-04-17 16:52:00,
2013-04-17 13:02:00,63.0,42.0,30.21,West,277,0.0,23.0,46,0.00,,,0.00,,2013-04-17 17:02:00,
2013-04-17 13:12:00,63.0,42.0,30.21,West,277,0.0,23.0,46,0.00,,,0.00,,2013-04-17 17:12:00,
2013-04-17 13:22:00,65.0,43.0,30.21,NE,54,5.0,23.0,44,0.00,,,0.00,,2013-04-17 17:22:00,
2013-04-17 13:33:00,65.0,43.0,30.21,NE,54,5.0,23.0,44,0.00,,,0.00,,2013-04-17 17:33:00,
2013-04-17 13:42:00,65.0,43.0,30.21,NE,54,5.0,23.0,44,0.00,,,0.00,,2013-04-17 17:42:00,
2013-04-17 13:52:00,63.0,40.0,30.21,North,0,2.0,23.0,42,0.00,,,0.00,,2013-04-17 17:52:00,
2013-04-17 14:02:00,63.0,40.0,30.21,North,0,2.0,23.0,42,0.00,,,0.00,,2013-04-17 18:02:00,
2013-04-17 14:12:00,63.0,40.0,30.21,North,0,2.0,23.0,42,0.00,,,0.00,,2013-04-17 18:12:00,
2013-04-17 14:22:00,57.0,43.0,30.21,South,179,5.0,23.0,59,0.00,,,0.00,,2013-04-17 18:22:00,
2013-04-17 14:32:00,57.0,43.0,30.21,South,179,5.0,23.0,59,0.00,,,0.00,,2013-04-17 18:32:00,
2013-04-17 14:42:00,57.0,43.0,30.21,South,179,5.0,23.0,59,0.00,,,0.00,,2013-04-17 18:42:00,
2013-04-17 14:52:00,60.0,44.0,30.21,SSE,168,6.0,23.0,56,0.00,,,0.00,,2013-04-17 18:52:00,
2013-04-17 15:02:00,60.0,44.0,30.21,SSE,168,6.0,23.0,56,0.00,,,0.00,,2013-04-17 19:02:00,
2013-04-17 15:12:00,60.0,44.0,30.21,SSE,168,6.0,23.0,56,0.00,,,0.00,,2013-04-17 19:12:00,
2013-04-17 15:22:00,60.0,44.0,30.21,SSE,168,6.0,23.0,56,0.00,,,0.00,,2013-04-17 19:22:00,
2013-04-17 15:42:00,59.0,46.0,30.22,South,177,5.0,23.0,61,0.00,,,0.00,,2013-04-17 19:42:00,
2013-04-17 15:52:00,59.0,46.0,30.22,South,177,5.0,23.0,61,0.00,,,0.00,,2013-04-17 19:52:00,
2013-04-17 16:03:00,59.0,46.0,30.22,South,177,5.0,23.0,61,0.00,,,0.00,,2013-04-17 20:03:00,
2013-04-17 16:12:00,59.0,46.0,30.22,South,177,5.0,23.0,61,0.00,,,0.00,,2013-04-17 20:12:00,
2013-04-17 16:22:00,54.0,43.0,30.22,SSE,160,7.0,23.0,65,0.00,,,0.00,,2013-04-17 20:22:00,
2013-04-17 16:32:00,54.0,43.0,30.22,SSE,160,7.0,23.0,65,0.00,,,0.00,,2013-04-17 20:32:00,
2013-04-17 16:42:00,54.0,43.0,30.22,SSE,160,7.0,23.0,65,0.00,,,0.00,,2013-04-17 20:42:00,
2013-04-17 16:52:00,54.0,44.0,30.23,SSE,165,6.0,23.0,68,0.00,,,0.00,,2013-04-17 20:52:00,
2013-04-17 17:03:00,54.0,44.0,30.23,SSE,165,6.0,23.0,68,0.00,,,0.00,,2013-04-17 21:03:00,
2013-04-17 17:12:00,54.0,44.0,30.23,SSE,165,6.0,23.0,68,0.00,,,0.00,,2013-04-17 21:12:00,
2013-04-17 17:22:00,55.0,46.0,30.24,SSE,156,5.0,23.0,71,0.00,,,0.00,,2013-04-17 21:22:00,
2013-04-17 17:33:00,55.0,46.0,30.24,SSE,156,5.0,23.0,71,0.00,,,0.00,,2013-04-17 21:33:00,
2013-04-17 17:43:00,55.0,46.0,30.25,SSE,165,8.0,23.0,71,0.00,,,0.00,,2013-04-17 21:43:00,
2013-04-17 17:53:00,55.0,46.0,30.25,SSE,165,8.0,23.0,71,0.00,,,0.00,,2013-04-17 21:53:00,
2013-04-17 18:02:00,55.0,46.0,30.25,SSE,165,8.0,23.0,71,0.00,,,0.00,,2013-04-17 22:02:00,
2013-04-17 18:13:00,52.0,44.0,30.27,South,189,1.0,23.0,75,0.00,,,0.00,,2013-04-17 22:13:00,
2013-04-17 18:22:00,52.0,44.0,30.27,South,189,1.0,23.0,75,0.00,,,0.00,,2013-04-17 22:22:00,
2013-04-17 18:33:00,52.0,44.0,30.27,South,189,1.0,23.0,75,0.00,,,0.00,,2013-04-17 22:33:00,
2013-04-17 18:43:00,47.0,42.0,30.29,South,190,4.0,23.0,82,0.00,,,0.00,,2013-04-17 22:43:00,
2013-04-17 18:53:00,47.0,42.0,30.29,South,190,4.0,23.0,82,0.00,,,0.00,,2013-04-17 22:53:00,
2013-04-17 19:02:00,47.0,42.0,30.29,South,190,4.0,23.0,82,0.00,,,0.00,,2013-04-17 23:02:00,
2013-04-17 19:12:00,49.0,46.0,30.29,SSE,159,6.0,23.0,88,0.00,,,0.00,,2013-04-17 23:12:00,
2013-04-17 19:22:00,49.0,46.0,30.29,SSE,159,6.0,23.0,88,0.00,,,0.00,,2013-04-17 23:22:00,
2013-04-17 19:32:00,49.0,46.0,30.29,SSE,159,6.0,23.0,88,0.00,,,0.00,,2013-04-17 23:32:00,
2013-04-17 19:42:00,49.0,46.0,30.31,South,178,7.0,23.0,89,0.00,,,0.00,,2013-04-17 23:42:00,
2013-04-17 19:52:00,49.0,46.0,30.31,South,178,7.0,23.0,89,0.00,,,0.00,,2013-04-17 23:52:00,
2013-04-17 20:02:00,49.0,46.0,30.31,South,178,7.0,23.0,89,0.00,,,0.00,,2013-04-18 00:02:00,
2013-04-17 20:12:00,48.0,46.0,30.33,South,176,4.0,23.0,92,0.00,,,0.00,,2013-04-18 00:12:00,
2013-04-17 20:22:00,48.0,46.0,30.33,South,176,4.0,23.0,92,0.00,,,0.00,,2013-04-18 00:22:00,
2013-04-17 20:32:00,48.0,46.0,30.33,South,176,4.0,23.0,92,0.00,,,0.00,,2013-04-18 00:32:00,
2013-04-17 20:43:00,48.0,46.0,30.33,South,176,0.0,23.0,94,0.00,,,0.00,,2013-04-18 00:43:00,
2013-04-17 20:52:00,48.0,46.0,30.33,South,176,0.0,23.0,94,0.00,,,0.00,,2013-04-18 00:52:00,
2013-04-17 21:02:00,48.0,46.0,30.33,South,176,0.0,23.0,94,0.00,,,0.00,,2013-04-18 01:02:00,
2013-04-17 21:12:00,45.0,44.0,30.34,SSE,167,0.0,23.0,96,0.00,,,0.00,,2013-04-18 01:12:00,
2013-04-17 21:22:00,45.0,44.0,30.34,SSE,167,0.0,23.0,96,0.00,,,0.00,,2013-04-18 01:22:00,
2013-04-17 21:32:00,45.0,44.0,30.34,SSE,167,0.0,23.0,96,0.00,,,0.00,,2013-04-18 01:32:00,
2013-04-17 21:42:00,45.0,44.0,30.35,NE,56,0.0,23.0,96,0.00,,,0.00,,2013-04-18 01:42:00,
2013-04-17 21:52:00,45.0,44.0,30.35,NE,56,0.0,23.0,96,0.00,,,0.00,,2013-04-18 01:52:00,
2013-04-17 22:02:00,45.0,44.0,30.35,NE,56,0.0,23.0,96,0.00,,,0.00,,2013-04-18 02:02:00,
2013-04-17 22:12:00,45.0,44.0,30.35,NE,56,0.0,23.0,96,0.00,,,0.00,,2013-04-18 02:12:00,
2013-04-17 22:22:00,45.0,44.0,30.35,NE,56,0.0,23.0,96,0.00,,,0.00,,2013-04-18 02:22:00,
2013-04-17 23:02:00,43.0,42.0,30.37,SSE,165,0.0,23.0,96,0.00,,,0.00,,2013-04-18 03:02:00,
2013-04-17 23:12:00,36.0,36.0,30.36,SSE,165,0.0,23.0,99,0.00,,,0.00,,2013-04-18 03:12:00,
2013-04-17 23:22:00,36.0,36.0,30.36,SSE,165,0.0,23.0,99,0.00,,,0.00,,2013-04-18 03:22:00,
2013-04-17 23:33:00,36.0,36.0,30.36,SSE,165,0.0,23.0,99,0.00,,,0.00,,2013-04-18 03:33:00,
2013-04-17 23:43:00,41.0,41.0,30.36,SSE,165,0.0,23.0,99,0.00,,,0.00,,2013-04-18 03:43:00,
2013-04-17 23:53:00,41.0,41.0,30.36,SSE,165,0.0,23.0,99,0.00,,,0.00,,2013-04-18 03:53:00,